Location: Endfield
(51.6667°N, 0.0667°W)
Time: 01:57:45
(UTC+00:00)

NOSS 8 (A) - Pass Details

Date: 19 May 2024
Orbit: 353 x 1571 km, 63.3° (Epoch: 16 June)

Event Time Altitude Azimuth Distance (km) Brightness Sun altitude
Exits shadow 23:43:18 57° 191° (S) 540 4.4 -18.2°
Maximum altitude 23:43:50 71° 134° (SE) 472 4.2 -18.2°
Drops below altitude 10° 23:46:53 10° 49° (NE) 1,430 7.4 -18.3°
Sets 23:48:44 0° 47° (NE) 2,228 8.5 -18.3°
